Jamestown, ND

4:15 PM CDT on April 20, 2018 (GMT -0500)
Jamestown Municipal

Weather History for KJMS - August, 2014

Change the Weather History Date:

Saturday, August 23, 2014

  Actual Average Record
Temperature  
Mean Temperature 65 °F 67 °F  
Max Temperature 69 °F 80 °F 103 °F (1929)
Min Temperature 60 °F 54 °F 34 °F (1908)
Degree Days  
Heating Degree Days 0 2  
Month to date heating degree days 1 25  
Since 1 June heating degree days 88 144  
Since 1 July heating degree days 29 47  
Cooling Degree Days 0 4  
Month to date cooling degree days 105 119  
Year to date cooling degree days 332 391  
Since 1 June cooling degree days 278 371  
Growing Degree Days 14 (Base 50)    
Moisture  
Dew Point 62 °F    
Average Humidity 92    
Maximum Humidity 100    
Minimum Humidity 84    
Precipitation  
Precipitation 1.05 in 0.07 in 1.62 in (1985)
Month to date precipitation 2.62 1.50  
Year to date precipitation 18.24 13.59  
Sea Level Pressure  
Sea Level Pressure 29.92 in    
Wind  
Wind Speed 13 mph (ENE)    
Max Wind Speed 22 mph    
Max Gust Speed 29 mph    
Visibility 5 miles    
Events Rain , Thunderstorm    
T = Trace of Precipitation, MM = Missing Value Source: NWS Daily Summary

Daily Weather History Graph

Daily Weather History Graph

Search for Another Location

Airport or City:

Astronomy

Aug. 23, 2014 Rise Set
Actual Time 6:42 AM CDT 8:31 PM CDT
Civil Twilight 6:10 AM CDT 9:03 PM CDT
Nautical Twilight 5:30 AM CDT 9:42 PM CDT
Astronomical Twilight 4:46 AM CDT 10:26 PM CDT
Moon 4:57 AM CDT (8/23) 7:17 PM CDT (8/23)
Length of Visible Light 14h 53m
Length of Day
13h 48m
Waning Crescent, 3% of the Moon is Illuminated
Aug 23
Waning Crescent
Aug 25
New
Sep 2
First Quarter
Sep 8
Full
Sep 15
Last Quarter

Hourly Weather History & Observations

Time (CDT) Temp. Dew Point Humidity Pressure Visibility Wind Dir Wind Speed Gust Speed Precip Events Conditions
12:56 AM 64.0 °F 61.0 °F 90% 30.08 in 10.0 mi NE 5.8 mph - N/A   Overcast
1:56 AM 63.0 °F 59.0 °F 87% 30.06 in 10.0 mi NE 9.2 mph - N/A   Overcast
2:56 AM 63.0 °F 59.0 °F 87% 30.05 in 10.0 mi NE 12.7 mph 17.3 mph N/A   Overcast
3:19 AM 62.1 °F 59.0 °F 90% 30.05 in 10.0 mi NNE 10.4 mph - N/A   Overcast
3:36 AM 62.1 °F 57.9 °F 86% 30.06 in 10.0 mi NE 10.4 mph - N/A   Overcast
3:56 AM 62.1 °F 57.9 °F 86% 30.05 in 10.0 mi NNE 10.4 mph - N/A   Overcast
4:56 AM 61.0 °F 57.9 °F 90% 30.04 in 10.0 mi NE 11.5 mph 19.6 mph N/A   Overcast
6:45 AM 61.0 °F 59.0 °F 93% 30.03 in 4.0 mi NE 10.4 mph 17.3 mph N/A   Overcast
6:56 AM 61.0 °F 59.0 °F 93% 30.03 in 4.0 mi NE 10.4 mph - N/A   Overcast
7:17 AM 60.1 °F 59.0 °F 96% 30.03 in 1.8 mi NE 8.1 mph - N/A   Overcast
7:35 AM 60.1 °F 59.0 °F 96% 30.02 in 2.0 mi NE 12.7 mph - N/A   Overcast
7:42 AM 60.1 °F 59.0 °F 96% 30.02 in 1.8 mi NE 11.5 mph - N/A   Overcast
7:51 AM 60.8 °F 59.0 °F 94% 30.02 in 2.0 mi NE 9.2 mph - N/A   Overcast
7:56 AM 60.1 °F 59.0 °F 96% 30.02 in 2.0 mi NE 8.1 mph - N/A   Overcast
8:25 AM 61.0 °F 59.0 °F 93% 30.02 in 1.5 mi NE 11.5 mph - N/A   Overcast
8:56 AM 61.0 °F 59.0 °F 93% 30.01 in 1.8 mi NE 10.4 mph - N/A   Overcast
9:18 AM 61.0 °F 60.1 °F 97% 30.01 in 2.0 mi NE 12.7 mph - N/A   Overcast
9:45 AM 61.0 °F 60.1 °F 97% 30.00 in 1.5 mi NE 12.7 mph - N/A   Overcast
9:56 AM 61.0 °F 60.1 °F 97% 30.00 in 2.5 mi ENE 10.4 mph - N/A   Overcast
10:11 AM 61.0 °F 60.1 °F 97% 30.00 in 3.0 mi ENE 9.2 mph 17.3 mph N/A   Overcast
10:23 AM 62.1 °F 60.1 °F 93% 29.99 in 2.5 mi ENE 10.4 mph 18.4 mph N/A   Overcast
10:39 AM 62.1 °F 60.1 °F 93% 29.99 in 1.8 mi ENE 10.4 mph - 0.00 in Rain Light Rain
10:47 AM 61.0 °F 60.1 °F 97% 29.99 in 2.5 mi ENE 11.5 mph 19.6 mph 0.00 in Rain Light Rain
10:56 AM 61.0 °F 60.1 °F 97% 29.99 in 1.8 mi NE 10.4 mph 20.7 mph 0.00 in Rain Light Rain
11:12 AM 61.0 °F 60.1 °F 97% 29.98 in 2.5 mi ENE 11.5 mph - 0.02 in Rain Light Rain
11:22 AM 62.1 °F 60.1 °F 93% 29.98 in 4.0 mi NE 10.4 mph - 0.02 in Rain Light Rain
11:56 AM 63.0 °F 61.0 °F 93% 29.97 in 4.0 mi ENE 9.2 mph - 0.06 in Rain Rain
12:29 PM 63.0 °F 62.1 °F 97% 29.95 in 7.0 mi ENE 12.7 mph - 0.04 in Rain Light Rain
12:40 PM 64.0 °F 62.1 °F 93% 29.95 in 10.0 mi ENE 15.0 mph 20.7 mph 0.04 in Rain Light Rain
12:56 PM 64.0 °F 62.1 °F 93% 29.95 in 10.0 mi ENE 13.8 mph - 0.04 in   Overcast
1:56 PM 66.0 °F 64.0 °F 93% 29.92 in 10.0 mi ENE 13.8 mph 19.6 mph N/A   Overcast
2:39 PM 66.9 °F 64.9 °F 93% 29.91 in 10.0 mi East 12.7 mph - 0.00 in Rain Light Rain
2:56 PM 66.9 °F 64.9 °F 93% 29.90 in 8.0 mi East 13.8 mph 24.2 mph 0.00 in Rain Light Rain
3:09 PM 66.9 °F 64.9 °F 93% 29.90 in 2.0 mi East 11.5 mph - 0.03 in Rain Rain
3:21 PM 66.9 °F 66.0 °F 97% 29.89 in 4.0 mi ENE 12.7 mph 18.4 mph 0.04 in Rain Light Rain
3:56 PM 68.0 °F 66.0 °F 93% 29.88 in 10.0 mi East 11.5 mph - 0.04 in   Overcast
4:36 PM 69.1 °F 66.0 °F 90% 29.86 in 9.0 mi East 11.5 mph 23.0 mph 0.01 in Rain Light Rain
4:56 PM 69.1 °F 66.9 °F 93% 29.86 in 5.0 mi East 16.1 mph 21.9 mph 0.03 in Rain Light Rain
5:44 PM 68.0 °F 64.9 °F 90% 29.85 in 2.5 mi East 17.3 mph 25.3 mph 0.09 in Rain Heavy Rain
5:52 PM 66.2 °F 64.4 °F 94% 29.84 in 1.8 mi East 18.4 mph 27.6 mph 0.13 in Rain Rain
5:56 PM 66.9 °F 64.9 °F 93% 29.84 in 2.5 mi ESE 17.3 mph 26.5 mph 0.14 in Rain Rain
6:16 PM 66.9 °F 64.9 °F 93% 29.84 in 7.0 mi East 13.8 mph - 0.01 in Rain Light Rain
6:23 PM 66.9 °F 64.9 °F 93% 29.84 in 1.8 mi East 11.5 mph - 0.06 in Rain Heavy Rain
6:31 PM 66.9 °F 64.9 °F 93% 29.83 in 1.5 mi East 17.3 mph 26.5 mph 0.09 in Rain Rain
6:34 PM 66.9 °F 64.9 °F 93% 29.83 in 3.0 mi East 16.1 mph 26.5 mph 0.09 in Rain Light Rain
7:56 PM 66.9 °F 64.9 °F 93% 29.81 in 6.0 mi ESE 13.8 mph 21.9 mph 0.09 in Rain Rain
8:27 PM 66.9 °F 64.9 °F 93% 29.79 in 5.0 mi East 16.1 mph 24.2 mph 0.08 in Rain , Thunderstorm Thunderstorms and Rain
8:56 PM 66.9 °F 64.9 °F 93% 29.77 in 4.0 mi East 20.7 mph 27.6 mph 0.17 in Rain , Thunderstorm Thunderstorms and Rain
9:22 PM 66.9 °F 66.0 °F 97% 29.77 in 1.8 mi East 19.6 mph 27.6 mph 0.18 in Rain , Thunderstorm Heavy Thunderstorms and Rain
9:35 PM 66.9 °F 64.9 °F 93% 29.77 in 2.5 mi ESE 19.6 mph 28.8 mph 0.27 in Rain , Thunderstorm Thunderstorms and Rain
9:39 PM 68.0 °F 64.9 °F 90% 29.76 in 5.0 mi East 20.7 mph 28.8 mph 0.28 in Rain , Thunderstorm Rain
9:56 PM 66.9 °F 66.0 °F 97% 29.76 in 6.0 mi East 16.1 mph 28.8 mph 0.30 in Rain , Thunderstorm Thunderstorms and Rain
10:05 PM 66.9 °F 66.0 °F 97% 29.74 in 6.0 mi East 17.3 mph 26.5 mph 0.02 in Rain Rain
10:17 PM 66.9 °F 64.9 °F 93% 29.71 in 6.0 mi East 19.6 mph 27.6 mph 0.04 in Rain , Thunderstorm Rain
10:32 PM 66.9 °F 66.0 °F 97% 29.73 in 10.0 mi East 18.4 mph 26.5 mph 0.06 in Rain Light Rain
10:54 PM 66.2 °F 64.4 °F 94% 29.72 in 9.0 mi East 10.4 mph - 0.09 in Rain Light Rain
10:56 PM 66.0 °F 64.0 °F 93% 29.72 in 9.0 mi ESE 11.5 mph - 0.09 in Rain Light Rain
11:56 PM 66.0 °F 64.0 °F 93% 29.71 in 10.0 mi ESE 8.1 mph - 0.00 in   Overcast